Tracking 19720 objects as of 26-Jun-2019
HD Live streaming from Space Station
objects crossing your sky now

DELTA 1 DEB

Track DELTA 1 DEB now!
10-day predictions


NORAD ID: 37642
Int'l Code: 1978-026JD
Perigee: 554.8 km
Apogee: 602.7 km
Inclination: 98.2 °
Period: 96.1 minutes
Semi major axis: 6949 km
RCS: 0.0079 m2 (small)
Launch date: March 5, 1978
Source: United States (US)
Launch site: AIR FORCE WESTERN TEST RANGE (AFWTR)

Note: This is SATELLITE DEBRIS
aabbcc
Your satellite tracking list
Your tracking list is empty




NASA's NSSDC Master Catalog

Two Line Element Set (TLE):
1 37642U 78026JD  19176.92960844  .00001242  00000-0  10836-3 0  9991
2 37642  98.1983 356.9783 0034470 197.6029 162.4000 14.98460533962974
Source of the keplerian elements: AFSPC